Weather reports worldwide

Advertisment
Bilbao/Aeropuerto, Spain (8025): temperature & dewpoint: 11.07.2018 15:00:00 - 17.07.2018 15:00:00 (CEST)Bilbao/Aeropuerto, Spain (8025): wind speed: 11.07.2018 15:00:00 - 17.07.2018 15:00:00 (CEST)Bilbao/Aeropuerto, Spain (8025): wind direction: 11.07.2018 15:00:00 - 17.07.2018 15:00:00 (CEST)Bilbao/Aeropuerto, Spain (8025): reduced air pressure: 11.07.2018 15:00:00 - 17.07.2018 15:00:00 (CEST)Bilbao/Aeropuerto, Spain (8025): visibility: 11.07.2018 15:00:00 - 17.07.2018 15:00:00 (CEST)
Date & Time tt [°C] td [°C] ff [km/h] ff [kn] dd ppp [hPa] vv [km]
17.07.2018 15:00:00 26,4 18,1 15 8 ENE 1018,7 -
17.07.2018 14:00:00 26,2 16,6 4 2 N 1019,4 25
17.07.2018 13:00:00 24,4 16,8 5 3 E 1019,9 -
17.07.2018 12:00:00 24,0 16,2 8 4 E 1020,4 -
17.07.2018 11:00:00 23,2 16,1 4 2 ESE 1020,7 25
17.07.2018 10:00:00 20,5 16,7 5 3 E 1021,0 -
17.07.2018 09:00:00 18,3 15,8 4 2 ESE 1021,2 -
17.07.2018 08:00:00 16,0 14,9 5 3 SE 1021,5 20
17.07.2018 07:00:00 14,8 14,0 8 4 E 1021,6 -
17.07.2018 06:00:00 15,3 14,5 4 2 ESE 1021,4 -
17.07.2018 05:00:00 15,5 14,5 8 4 E 1021,4 15
17.07.2018 04:00:00 15,9 14,9 4 2 ESE 1021,6 -
17.07.2018 03:00:00 16,3 15,3 8 4 ESE 1021,9 -
17.07.2018 02:00:00 16,6 15,6 8 4 ESE 1022,2 -
17.07.2018 01:00:00 17,1 16,1 8 4 ESE 1022,4 -
17.07.2018 00:00:00 17,7 16,6 9 5 ESE 1022,6 -
16.07.2018 23:00:00 19,1 17,1 4 2 E 1022,6 20
16.07.2018 22:00:00 20,1 17,1 5 3 N 1022,1 -
16.07.2018 21:00:00 21,7 17,1 11 6 NW 1021,7 -
16.07.2018 20:00:00 22,4 16,7 18 10 NNW 1021,4 25
16.07.2018 19:00:00 22,6 16,0 24 13 NNW 1021,3 -
16.07.2018 18:00:00 22,9 17,2 21 11 NNW 1021,1 -
16.07.2018 17:00:00 20,4 17,5 24 13 NW 1021,3 20
16.07.2018 16:00:00 20,1 17,9 11 6 NW 1021,2 -
16.07.2018 15:00:00 21,3 16,7 18 10 NW 1021,0 -
16.07.2018 14:00:00 21,9 16,8 28 15 NW 1020,6 20
16.07.2018 13:00:00 21,7 16,8 24 13 NW 1020,4 -
16.07.2018 12:00:00 19,8 16,6 16 9 WNW 1020,2 -
16.07.2018 11:00:00 21,4 15,4 22 12 WNW 1019,4 20
16.07.2018 10:00:00 21,7 16,4 21 11 NW 1018,6 -
16.07.2018 09:00:00 20,5 15,6 16 9 WNW 1018,5 -
16.07.2018 08:00:00 19,3 15,4 15 8 NW 1018,6 20
16.07.2018 07:00:00 18,9 15,4 16 9 NW 1018,0 -
16.07.2018 06:00:00 19,5 16,9 22 12 WNW 1017,6 -
16.07.2018 05:00:00 20,1 16,7 16 9 NW 1017,4 15
16.07.2018 04:00:00 20,1 16,7 18 10 NW 1017,5 -
16.07.2018 03:00:00 20,0 17,4 11 6 NW 1017,5 -
16.07.2018 02:00:00 20,4 18,0 22 12 NW 1017,3 -
16.07.2018 01:00:00 20,4 19,1 9 5 WNW 1017,5 -
16.07.2018 00:00:00 20,8 19,6 4 2 SSW 1017,7 -
15.07.2018 23:00:00 21,7 19,8 5 3 WSW 1017,8 15
15.07.2018 22:00:00 21,2 19,8 8 4 NNW 1016,1 -
15.07.2018 21:00:00 21,6 20,4 11 6 NNW 1016,6 -
15.07.2018 20:00:00 22,3 20,0 11 6 WNW 1016,4 15
15.07.2018 19:00:00 22,6 20,0 18 10 NW 1015,7 -
15.07.2018 18:00:00 23,2 20,3 16 9 NW 1015,5 -
15.07.2018 17:00:00 24,8 20,4 15 8 NNW 1015,1 15
15.07.2018 16:00:00 26,3 21,3 21 11 NNW 1015,3 -
15.07.2018 15:00:00 26,4 20,9 18 10 NW 1015,3 -
15.07.2018 14:00:00 26,9 21,1 16 9 NNW 1015,5 15
15.07.2018 13:00:00 26,0 20,7 15 8 NNW 1015,8 -
15.07.2018 12:00:00 25,5 20,4 13 7 NNW 1016,0 -
15.07.2018 11:00:00 24,9 20,1 8 4 WNW 1016,2 15
15.07.2018 10:00:00 24,3 19,3 8 4 NNW 1016,1 -
15.07.2018 09:00:00 23,0 20,3 4 2 ENE 1016,0 -
15.07.2018 08:00:00 21,1 19,7 4 2 SE 1016,2 15
15.07.2018 07:00:00 20,3 19,3 4 2 WNW 1016,0 -
15.07.2018 06:00:00 20,4 19,4 2 1 ESE 1015,7 -
15.07.2018 05:00:00 20,9 19,6 2 1 S 1015,8 12
15.07.2018 04:00:00 21,6 19,9 0 0 N 1016,0 -
15.07.2018 03:00:00 22,1 19,8 2 1 NW 1016,3 -
15.07.2018 02:00:00 22,2 20,0 4 2 W 1016,6 -
15.07.2018 01:00:00 22,4 20,3 4 2 N 1016,8 -
15.07.2018 00:00:00 22,3 20,2 8 4 WNW 1016,3 -
14.07.2018 23:00:00 22,9 20,4 9 5 WNW 1016,6 15
14.07.2018 22:00:00 23,3 20,4 9 5 NW 1016,1 -
14.07.2018 21:00:00 24,4 20,5 9 5 NW 1015,3 -
14.07.2018 20:00:00 23,5 20,6 16 9 NW 1015,3 15
14.07.2018 19:00:00 23,5 20,4 15 8 WNW 1015,8 -
14.07.2018 18:00:00 24,5 21,0 18 10 WNW 1015,7 -
14.07.2018 17:00:00 27,5 21,9 18 10 WNW 1015,4 20
14.07.2018 16:00:00 27,2 22,3 15 8 NW 1015,7 -
14.07.2018 15:00:00 27,5 22,2 16 9 NW 1016,1 -
14.07.2018 14:00:00 27,0 22,4 15 8 NW 1016,3 15
14.07.2018 13:00:00 27,3 19,2 5 3 E 1016,7 -
14.07.2018 12:00:00 26,3 20,3 4 2 S 1017,3 -
14.07.2018 11:00:00 24,7 20,1 4 2 NE 1017,4 15
14.07.2018 10:00:00 23,2 19,8 2 1 SSE 1017,3 -
14.07.2018 09:00:00 21,3 19,4 4 2 E 1017,4 -
14.07.2018 08:00:00 19,4 18,7 5 3 E 1017,2 8
14.07.2018 07:00:00 18,6 18,1 8 4 ESE 1017,0 -
14.07.2018 06:00:00 18,7 18,2 8 4 SE 1017,2 -
14.07.2018 05:00:00 19,4 18,7 2 1 NNE 1017,1 15
14.07.2018 04:00:00 20,3 19,1 2 1 SSE 1016,9 -
14.07.2018 03:00:00 20,5 19,3 15 8 E 1016,2 -
14.07.2018 02:00:00 21,0 20,2 4 2 ENE 1018,7 -
14.07.2018 01:00:00 21,3 20,3 8 4 E 1019,0 -
14.07.2018 00:00:00 21,5 19,7 9 5 NW 1019,6 -
13.07.2018 23:00:00 21,8 18,8 13 7 WNW 1018,8 20
13.07.2018 22:00:00 21,8 18,6 11 6 NNW 1018,6 -
13.07.2018 21:00:00 23,5 18,6 4 2 SSE 1017,2 -
13.07.2018 20:00:00 24,5 17,7 8 4 E 1016,7 20
13.07.2018 19:00:00 25,0 17,3 11 6 E 1016,9 -
13.07.2018 18:00:00 26,3 19,4 9 5 N 1016,6 -
13.07.2018 17:00:00 26,9 18,7 9 5 ENE 1016,7 20
13.07.2018 16:00:00 26,6 19,1 9 5 NE 1016,7 -
13.07.2018 15:00:00 27,6 19,8 15 8 WNW 1016,9 -
13.07.2018 14:00:00 27,4 18,8 8 4 N 1017,3 20
13.07.2018 13:00:00 26,1 17,8 8 4 NNE 1017,8 -
13.07.2018 12:00:00 24,8 17,9 4 2 S 1018,2 -
13.07.2018 11:00:00 22,9 16,3 4 2 E 1018,5 20
13.07.2018 10:00:00 20,0 15,9 8 4 ESE 1018,7 -
13.07.2018 09:00:00 16,8 14,9 8 4 ESE 1018,8 -
13.07.2018 08:00:00 15,9 14,4 8 4 E 1018,8 15
13.07.2018 07:00:00 15,1 14,1 8 4 SE 1018,9 -
13.07.2018 06:00:00 15,0 14,0 5 3 ESE 1018,9 -
13.07.2018 05:00:00 15,2 14,1 8 4 E 1018,8 12
13.07.2018 04:00:00 15,4 14,3 8 4 E 1018,9 -
13.07.2018 03:00:00 15,6 14,5 8 4 E 1019,2 -
13.07.2018 02:00:00 15,8 14,3 8 4 ESE 1019,3 -
13.07.2018 01:00:00 16,9 14,9 5 3 ESE 1019,6 -
13.07.2018 00:00:00 17,6 15,0 4 2 ESE 1019,7 -
12.07.2018 23:00:00 19,7 15,3 4 2 ESE 1019,2 20
12.07.2018 22:00:00 21,0 14,9 5 3 ENE 1018,7 -
12.07.2018 21:00:00 21,9 15,0 11 6 ENE 1018,4 -
12.07.2018 20:00:00 23,2 16,3 15 8 NE 1018,1 20
12.07.2018 19:00:00 23,2 17,2 9 5 ENE 1017,7 -
12.07.2018 18:00:00 24,2 18,9 15 8 NNE 1017,8 -
12.07.2018 17:00:00 24,7 19,2 13 7 NNW 1017,9 20
12.07.2018 16:00:00 23,1 17,8 15 8 N 1018,1 -
12.07.2018 15:00:00 23,1 18,8 11 6 NNW 1018,3 -
12.07.2018 14:00:00 23,6 17,5 8 4 N 1018,3 20
12.07.2018 13:00:00 22,8 17,9 13 7 NNW 1018,7 -
12.07.2018 12:00:00 22,6 18,3 9 5 N 1018,6 -
12.07.2018 11:00:00 21,3 18,3 4 2 E 1018,4 20
12.07.2018 10:00:00 20,0 17,8 2 1 SW 1018,0 -
12.07.2018 09:00:00 19,0 18,0 2 1 W 1017,7 -
12.07.2018 08:00:00 18,6 17,8 4 2 NNE 1017,2 4,5
12.07.2018 07:00:00 18,5 17,5 11 6 NW 1016,9 -
12.07.2018 06:00:00 19,4 16,9 11 6 NW 1016,8 -
12.07.2018 05:00:00 20,1 17,7 18 10 NNW 1016,3 15
12.07.2018 04:00:00 20,1 18,2 9 5 NW 1016,3 -
12.07.2018 03:00:00 20,4 18,6 13 7 NW 1016,5 -
12.07.2018 02:00:00 21,8 20,4 2 1 SSW 1016,4 -
12.07.2018 01:00:00 22,1 20,4 5 3 W 1016,3 -
12.07.2018 00:00:00 22,4 20,1 8 4 N 1016,5 -
11.07.2018 23:00:00 22,5 19,9 5 3 NW 1016,4 15
11.07.2018 22:00:00 23,1 19,7 5 3 N 1015,4 -
11.07.2018 21:00:00 23,6 19,7 11 6 N 1015,4 -
11.07.2018 20:00:00 24,8 17,8 13 7 NE 1015,2 30
11.07.2018 19:00:00 25,6 18,8 9 5 NNE 1015,0 -
11.07.2018 18:00:00 24,5 19,7 5 3 WNW 1014,7 -
11.07.2018 17:00:00 25,5 18,5 9 5 NNE 1015,2 30
11.07.2018 16:00:00 25,9 18,7 16 9 N 1016,3 -
11.07.2018 15:00:00 26,4 19,1 11 6 NNE 1017,7 -

tt = temperature
td = dewpoint
ff = wind speed
dd = wind direction
ppp = reduced air pressure
vv = visibility

Next stations